LOT9KM EPSC-EPWA

Flight info

Callsign LOT9KM
Flight time 0h 50m
Altitude 31000
Route APNEZ DCT XERBI DCT DENKO DCT MOLIL DCT VEMAL DCT BIMPA
Aircraft E195/M-SDE3GILORVW/S

Departure

Time 2026-04-17 21:09
Airport Solidarity Szczecin–Goleniów Airport (EPSC)

Arrival

Time 2026-04-17 22:00
Airport Warsaw Chopin Airport (EPWA)
Time Latitude Longitude Altitude Speed Heading
2026-04-17 20:43 53.59247 14.89396 141 ft 0 kts 46°
2026-04-17 20:59 53.59239 14.89381 141 ft 4 kts 46°
2026-04-17 20:59 53.59220 14.89349 141 ft 4 kts 46°
2026-04-17 21:00 53.59202 14.89317 141 ft 3 kts 46°
2026-04-17 21:00 53.59188 14.89285 141 ft 4 kts 86°
2026-04-17 21:00 53.59194 14.89246 141 ft 4 kts 129°
2026-04-17 21:00 53.59200 14.89234 141 ft 0 kts 131°
2026-04-17 21:03 53.59193 14.89247 141 ft 4 kts 131°
2026-04-17 21:03 53.59161 14.89310 141 ft 10 kts 131°
2026-04-17 21:03 53.59107 14.89414 141 ft 13 kts 131°
2026-04-17 21:03 53.59043 14.89538 140 ft 15 kts 131°
2026-04-17 21:04 53.58971 14.89678 139 ft 17 kts 130°
2026-04-17 21:04 53.58892 14.89832 139 ft 18 kts 130°
2026-04-17 21:04 53.58808 14.89996 139 ft 19 kts 131°
2026-04-17 21:04 53.58721 14.90166 140 ft 19 kts 131°
2026-04-17 21:05 53.58632 14.90338 140 ft 20 kts 130°
2026-04-17 21:05 53.58542 14.90513 142 ft 20 kts 131°
2026-04-17 21:05 53.58452 14.90688 143 ft 20 kts 130°
2026-04-17 21:05 53.58362 14.90863 145 ft 20 kts 131°
2026-04-17 21:06 53.58275 14.91032 148 ft 19 kts 131°
2026-04-17 21:06 53.58191 14.91196 152 ft 18 kts 130°
2026-04-17 21:06 53.58113 14.91347 155 ft 16 kts 131°
2026-04-17 21:06 53.58040 14.91488 158 ft 15 kts 130°
2026-04-17 21:07 53.57971 14.91623 161 ft 15 kts 130°
2026-04-17 21:07 53.57901 14.91756 162 ft 15 kts 135°
2026-04-17 21:07 53.57814 14.91726 162 ft 15 kts 219°
2026-04-17 21:07 53.57778 14.91580 162 ft 15 kts 298°
2026-04-17 21:08 53.57846 14.91445 161 ft 17 kts 311°
2026-04-17 21:08 53.58051 14.91047 154 ft 76 kts 310°
2026-04-17 21:08 53.58516 14.90134 142 ft 130 kts 311°
2026-04-17 21:08 53.59189 14.88818 319 ft 157 kts 312°
2026-04-17 21:09 53.59935 14.87358 706 ft 175 kts 312°
2026-04-17 21:09 53.60742 14.85795 1322 ft 174 kts 312°
2026-04-17 21:09 53.61507 14.84263 1997 ft 171 kts 312°
2026-04-17 21:09 53.62295 14.82704 2452 ft 182 kts 312°
2026-04-17 21:10 53.63141 14.81004 2857 ft 194 kts 308°
2026-04-17 21:10 53.63624 14.78846 3297 ft 208 kts 275°
2026-04-17 21:10 53.63299 14.76399 3642 ft 225 kts 244°
2026-04-17 21:10 53.62346 14.74187 3997 ft 247 kts 224°
2026-04-17 21:11 53.60940 14.72317 4386 ft 266 kts 215°
2026-04-17 21:11 53.59905 14.71171 4821 ft 272 kts 209°
2026-04-17 21:11 53.58148 14.69962 5543 ft 275 kts 193°
2026-04-17 21:11 53.56252 14.70086 6260 ft 277 kts 160°
2026-04-17 21:12 53.54688 14.71913 6957 ft 277 kts 130°
2026-04-17 21:12 53.53523 14.74505 7628 ft 280 kts 124°
2026-04-17 21:12 53.52355 14.77150 8272 ft 284 kts 127°
2026-04-17 21:12 53.51199 14.79860 8877 ft 287 kts 115°
2026-04-17 21:13 53.50583 14.83055 9534 ft 289 kts 102°
2026-04-17 21:13 53.50097 14.86351 10206 ft 291 kts 103°
2026-04-17 21:13 53.49574 14.89703 10639 ft 304 kts 103°
2026-04-17 21:13 53.49034 14.93209 11043 ft 316 kts 103°
2026-04-17 21:14 53.48470 14.96810 11616 ft 320 kts 103°
2026-04-17 21:14 53.47893 15.00439 12234 ft 323 kts 104°
2026-04-17 21:14 53.47310 15.04095 12848 ft 325 kts 103°
2026-04-17 21:14 53.46723 15.07784 13413 ft 329 kts 104°
2026-04-17 21:15 53.46135 15.11463 13967 ft 332 kts 103°
2026-04-17 21:15 53.45532 15.15228 14526 ft 335 kts 103°
2026-04-17 21:15 53.44923 15.19022 15073 ft 339 kts 103°
2026-04-17 21:15 53.44307 15.22854 15610 ft 342 kts 103°
2026-04-17 21:16 53.43685 15.26732 16140 ft 345 kts 103°
2026-04-17 21:16 53.43056 15.30635 16669 ft 348 kts 103°
2026-04-17 21:16 53.42420 15.34576 17181 ft 351 kts 103°
2026-04-17 21:16 53.41776 15.38543 17685 ft 354 kts 103°
2026-04-17 21:17 53.41128 15.42546 18187 ft 358 kts 103°
2026-04-17 21:17 53.40473 15.46584 18697 ft 361 kts 103°
2026-04-17 21:17 53.39811 15.50661 19205 ft 364 kts 103°
2026-04-17 21:17 53.39141 15.54761 19721 ft 366 kts 103°
2026-04-17 21:18 53.38468 15.58887 20234 ft 369 kts 103°
2026-04-17 21:18 53.37791 15.63057 20717 ft 372 kts 103°
2026-04-17 21:18 53.37106 15.67257 21169 ft 376 kts 103°
2026-04-17 21:18 53.36414 15.71490 21632 ft 378 kts 103°
2026-04-17 21:19 53.35719 15.75752 22046 ft 381 kts 103°
2026-04-17 21:19 53.35014 15.80049 22454 ft 384 kts 103°
2026-04-17 21:19 53.34312 15.84331 22868 ft 387 kts 103°
2026-04-17 21:19 53.33595 15.88686 23296 ft 390 kts 103°
2026-04-17 21:20 53.32869 15.93077 23723 ft 392 kts 103°
2026-04-17 21:20 53.32141 15.97481 24124 ft 395 kts 103°
2026-04-17 21:20 53.31403 16.01933 24537 ft 397 kts 103°
2026-04-17 21:20 53.30659 16.06400 24972 ft 399 kts 102°
2026-04-17 21:21 53.29916 16.10880 25366 ft 401 kts 102°
2026-04-17 21:21 53.29166 16.15387 25725 ft 404 kts 102°
2026-04-17 21:21 53.28419 16.19873 26058 ft 407 kts 102°
2026-04-17 21:21 53.27653 16.24434 26376 ft 409 kts 102°
2026-04-17 21:22 53.26880 16.29032 26697 ft 411 kts 102°
2026-04-17 21:22 53.26107 16.33648 27008 ft 414 kts 102°
2026-04-17 21:22 53.25328 16.38286 27312 ft 416 kts 102°
2026-04-17 21:22 53.24542 16.42946 27598 ft 418 kts 102°
2026-04-17 21:23 53.23750 16.47627 27908 ft 420 kts 102°
2026-04-17 21:23 53.22954 16.52331 28202 ft 422 kts 101°
2026-04-17 21:23 53.22159 16.57056 28488 ft 424 kts 101°
2026-04-17 21:23 53.21357 16.61803 28748 ft 426 kts 101°
2026-04-17 21:24 53.20546 16.66569 29010 ft 428 kts 101°
2026-04-17 21:24 53.19730 16.71341 29313 ft 428 kts 101°
2026-04-17 21:24 53.18912 16.76101 29663 ft 426 kts 101°
2026-04-17 21:24 53.18105 16.80795 29980 ft 426 kts 101°
2026-04-17 21:25 53.17272 16.85599 30314 ft 425 kts 101°
2026-04-17 21:25 53.16463 16.90268 30649 ft 424 kts 101°
2026-04-17 21:25 53.15650 16.94990 30954 ft 424 kts 101°
2026-04-17 21:25 53.14831 16.99694 31288 ft 421 kts 102°
2026-04-17 21:26 53.13183 17.09193 31364 ft 433 kts 102°
2026-04-17 21:26 53.11490 17.18957 31358 ft 443 kts 102°
2026-04-17 21:27 53.09750 17.28823 31262 ft 443 kts 102°
2026-04-17 21:27 53.08029 17.38677 31264 ft 444 kts 102°
2026-04-17 21:28 53.06290 17.48528 31264 ft 444 kts 102°
2026-04-17 21:28 53.04549 17.58354 31268 ft 443 kts 102°
2026-04-17 21:29 53.02798 17.68165 31263 ft 442 kts 103°
2026-04-17 21:29 53.01053 17.77905 31264 ft 443 kts 103°
2026-04-17 21:30 52.99282 17.87702 31268 ft 442 kts 103°
2026-04-17 21:30 52.97512 17.97472 31268 ft 442 kts 103°
2026-04-17 21:31 52.95725 18.07236 31267 ft 440 kts 103°
2026-04-17 21:31 52.93950 18.16913 31266 ft 438 kts 103°
2026-04-17 21:32 52.92189 18.26517 31264 ft 438 kts 103°
2026-04-17 21:32 52.90403 18.36179 31267 ft 438 kts 103°
2026-04-17 21:33 52.88610 18.45823 31268 ft 438 kts 103°
2026-04-17 21:33 52.86815 18.55456 31267 ft 438 kts 103°
2026-04-17 21:34 52.85005 18.65076 31255 ft 437 kts 103°
2026-04-17 21:35 52.82269 18.79487 31257 ft 437 kts 103°
2026-04-17 21:35 52.80444 18.89086 31259 ft 437 kts 103°
2026-04-17 21:36 52.78607 18.98650 31260 ft 437 kts 103°
2026-04-17 21:36 52.76775 19.08233 31259 ft 437 kts 103°
2026-04-17 21:37 52.74938 19.17728 31251 ft 437 kts 103°
2026-04-17 21:37 52.73096 19.27270 31253 ft 436 kts 104°
2026-04-17 21:38 52.71262 19.36800 31251 ft 436 kts 103°
2026-04-17 21:38 52.69439 19.46227 31261 ft 422 kts 103°
2026-04-17 21:39 52.67637 19.55302 31251 ft 415 kts 104°
2026-04-17 21:39 52.65767 19.64289 31255 ft 413 kts 104°
2026-04-17 21:40 52.63952 19.73263 31256 ft 413 kts 103°
2026-04-17 21:40 52.62166 19.82239 31258 ft 412 kts 103°
2026-04-17 21:41 52.60370 19.91193 31261 ft 412 kts 102°
2026-04-17 21:41 52.58589 20.00222 30085 ft 418 kts 103°
2026-04-17 21:41 52.57705 20.04708 28853 ft 417 kts 103°
2026-04-17 21:42 52.56807 20.09230 27568 ft 414 kts 103°
2026-04-17 21:42 52.55917 20.13699 26245 ft 409 kts 103°
2026-04-17 21:42 52.55024 20.18113 24880 ft 406 kts 103°
2026-04-17 21:42 52.54127 20.22496 23468 ft 403 kts 103°
2026-04-17 21:43 52.53239 20.26845 22025 ft 400 kts 104°
2026-04-17 21:43 52.52343 20.31154 20492 ft 398 kts 104°
2026-04-17 21:43 52.51336 20.35276 19911 ft 378 kts 114°
2026-04-17 21:43 52.49980 20.38880 19429 ft 364 kts 119°
2026-04-17 21:44 52.48610 20.42386 19018 ft 366 kts 116°
2026-04-17 21:44 52.47299 20.45961 18545 ft 365 kts 116°
2026-04-17 21:44 52.46003 20.49525 18087 ft 362 kts 116°
2026-04-17 21:44 52.44736 20.53069 17603 ft 358 kts 115°
2026-04-17 21:45 52.43492 20.56576 17126 ft 354 kts 115°
2026-04-17 21:45 52.42271 20.60044 16668 ft 349 kts 115°
2026-04-17 21:45 52.41069 20.63478 16201 ft 346 kts 115°
2026-04-17 21:45 52.39877 20.66881 15744 ft 343 kts 115°
2026-04-17 21:46 52.38693 20.70267 15290 ft 341 kts 115°
2026-04-17 21:46 52.37512 20.73616 14838 ft 339 kts 115°
2026-04-17 21:46 52.36339 20.76926 14389 ft 334 kts 115°
2026-04-17 21:46 52.35197 20.80153 13955 ft 331 kts 115°
2026-04-17 21:47 52.34044 20.83379 13522 ft 326 kts 115°
2026-04-17 21:47 52.32914 20.86569 13081 ft 322 kts 115°
2026-04-17 21:47 52.31793 20.89718 12663 ft 318 kts 116°
2026-04-17 21:47 52.30684 20.92829 12241 ft 315 kts 116°
2026-04-17 21:48 52.29585 20.95922 11830 ft 312 kts 116°
2026-04-17 21:48 52.28494 20.98972 11416 ft 309 kts 116°
2026-04-17 21:48 52.27403 21.01978 11001 ft 307 kts 120°
2026-04-17 21:48 52.25865 21.04414 10609 ft 311 kts 145°
2026-04-17 21:49 52.23930 21.05982 10222 ft 310 kts 153°
2026-04-17 21:49 52.22014 21.07482 9785 ft 308 kts 151°
2026-04-17 21:49 52.20082 21.09081 9380 ft 306 kts 150°
2026-04-17 21:49 52.18191 21.10660 8966 ft 304 kts 151°
2026-04-17 21:50 52.16320 21.12240 8558 ft 302 kts 150°
2026-04-17 21:50 52.14488 21.13804 8166 ft 300 kts 150°
2026-04-17 21:50 52.12657 21.15400 7767 ft 298 kts 150°
2026-04-17 21:50 52.10836 21.16986 7379 ft 296 kts 150°
2026-04-17 21:51 52.09037 21.18556 6962 ft 288 kts 150°
2026-04-17 21:51 52.07305 21.20063 6468 ft 277 kts 150°
2026-04-17 21:51 52.05637 21.21523 5980 ft 269 kts 149°
2026-04-17 21:51 52.04015 21.22941 5490 ft 261 kts 150°
2026-04-17 21:52 52.02431 21.24304 5016 ft 254 kts 150°
2026-04-17 21:52 52.00888 21.25652 4516 ft 251 kts 150°
2026-04-17 21:52 51.99356 21.26981 4010 ft 248 kts 151°
2026-04-17 21:52 51.97720 21.27785 3481 ft 247 kts 180°
2026-04-17 21:53 51.96178 21.27022 3293 ft 219 kts 223°
2026-04-17 21:53 51.95431 21.25200 3689 ft 180 kts 258°
2026-04-17 21:53 51.95210 21.23385 4557 ft 153 kts 273°
2026-04-17 21:53 51.95290 21.21607 4674 ft 169 kts 291°
2026-04-17 21:54 51.95879 21.20004 4661 ft 161 kts 322°
2026-04-17 21:54 51.96770 21.18768 4727 ft 172 kts 318°
2026-04-17 21:54 51.97501 21.17234 4984 ft 176 kts 308°
2026-04-17 21:54 51.98208 21.15584 5237 ft 181 kts 309°
2026-04-17 21:55 51.98955 21.13889 5201 ft 189 kts 309°
2026-04-17 21:55 51.99763 21.12120 4727 ft 199 kts 310°
2026-04-17 21:55 52.00668 21.10412 4105 ft 205 kts 325°
2026-04-17 21:55 52.02001 21.09354 3400 ft 216 kts 340°
2026-04-17 21:56 52.03346 21.08371 3050 ft 206 kts 333°
2026-04-17 21:56 52.04524 21.07221 2776 ft 189 kts 331°
2026-04-17 21:56 52.05646 21.06248 2525 ft 179 kts 334°
2026-04-17 21:56 52.06747 21.05323 2305 ft 175 kts 333°
2026-04-17 21:57 52.07796 21.04391 2073 ft 169 kts 332°
2026-04-17 21:57 52.08802 21.03509 1847 ft 159 kts 332°
2026-04-17 21:57 52.09731 21.02707 1667 ft 148 kts 332°
2026-04-17 21:57 52.10621 21.01927 1502 ft 143 kts 332°
2026-04-17 21:58 52.11478 21.01176 1273 ft 137 kts 332°
2026-04-17 21:58 52.12292 21.00464 1092 ft 128 kts 332°
2026-04-17 21:58 52.13073 20.99764 880 ft 128 kts 331°
2026-04-17 21:58 52.13858 20.99083 742 ft 127 kts 332°
2026-04-17 21:59 52.14636 20.98399 577 ft 127 kts 332°
2026-04-17 21:59 52.15419 20.97712 418 ft 128 kts 332°
2026-04-17 21:59 52.16183 20.97047 340 ft 114 kts 332°
2026-04-17 21:59 52.16590 20.96696 335 ft 84 kts 332°
2026-04-17 22:00 52.16978 20.96357 336 ft 43 kts 332°
2026-04-17 22:00 52.17212 20.96244 334 ft 28 kts 356°
2026-04-17 22:00 52.17375 20.96258 336 ft 18 kts 21°
2026-04-17 22:00 52.17422 20.96341 333 ft 10 kts 66°
2026-04-17 22:01 52.17450 20.96451 334 ft 11 kts 62°
2026-04-17 22:01 52.17460 20.96567 337 ft 11 kts 125°
2026-04-17 22:01 52.17392 20.96634 335 ft 12 kts 152°
2026-04-17 22:01 52.17313 20.96704 337 ft 14 kts 152°
2026-04-17 22:02 52.17225 20.96781 336 ft 15 kts 152°
2026-04-17 22:02 52.17129 20.96865 337 ft 16 kts 152°
2026-04-17 22:02 52.17033 20.96950 334 ft 12 kts 150°
2026-04-17 22:02 52.17036 20.97050 335 ft 10 kts 71°
2026-04-17 22:03 52.17048 20.97106 337 ft 2 kts 70°
2026-04-17 22:03 52.17049 20.97108 337 ft 0 kts 70°